COSMOS 2251 DEB, 34641

Orbit data source: Space-Track

COSMOS 2251 DEB, 34641 is space debris in LEO originally from a launch on Wed, 16 Jun 1993 UTC launched from the Plesetsk Missile And Space Complex (PKMTR). The debris from Iridium 33, an American commercial communications satellite, has been tracked extensively since its accidental collision with the defunct Russian satellite Cosmos 2251 in 2009. This event, occurring at high speed in low Earth orbit (LEO), generated thousands of pieces of space debris, significantly increasing the risk of further collisions. The Iridium 33 debris cloud has impacted space traffic management and orbital debris mitigation strategies, making it a subject of ongoing study in space situational awareness.

Loading next visibility...
Identifier
34641, 1993-036XN
Orbit
LEO
Country
Flag of CISCIS
Related business
Manufacturer
Unknown
Mission
Spacecraft
Bus & Motor
Unknown
Mass
Unknown
Launch date (UTC)
1993-06-16 (33 years ago)
Launch vehicle
Unknown
Launch site
Plesetsk Missile And Space Complex (PKMTR)
Object type
Payload
Rocket body
Debris
Shape & HBR
Unknown shape, 0.1 m
Radar Cross Section
Small (<0.1 m²)

Expand to show TLE details & history
Last TLE update: 18 hours ago

TLE from 18 hours ago
0 COSMOS 2251 DEB
1 34641U 93036XN  26035.29960145  .00004966  00000-0  12202-2 0  9995
2 34641  73.8413 339.4916 0019309 249.0482 263.9185 14.52483010890337
Epoch: 2026-02-04T07:11Z
TLE epoch observation values (Epoch: 2026-02-04T07:11:25.565Z)
Latitude
26.13465°
Longitude
-90.96195°
Altitude
721.897 km
Speed
7.496 km/s
True Right ascension
10h 05m 27s
True Declination
25° 59' 54"
Sunlit
Object was in full shadow at epoch
Visualization orbit readout
Latitude
Unknown
Longitude
Unknown
Altitude
Unknown
Speed
Unknown
Apparent Right ascension
Unknown
Apparent Declination
Unknown
Sunlit
N/A
Visualization observer readout
Local Sidereal Time
02:50:17
Azimuth
Unknown
Elevation
Unknown
Doppler factor
Unknown
Orbital elements
Apogee altitude
728.869 km
Perigee altitude
701.476 km
Semi-major axis
7,093.31 km
Eccentricity
0.00193
Inclination
73.8413°
RAAN
339.4916°
Arg. of periapsis
249.0482°
True anomaly
263.69854°
Mean anomaly
263.9185°
Eccentric anomaly
263.80851°
Mean motion
3.63304 °/min
Orbital period
99.09 mins
BSTAR
0.0012202

Documentation

Showing up to 5 results
|